Location: Devore Heights
(34.2372°N, 117.4156°W)
Time: 01:36:46
(UTC+00:00)

Vanguard 2 Rocket - Pass Details

Date: 17 September 2024
Orbit: 553 x 3298 km, 32.9° (Epoch: 09 October)

Event Time Altitude Azimuth Distance (km) Brightness Sun altitude
Exits shadow 11:15:44 41° 269° (W) 2,902 8.9 -28.6°
Maximum altitude 11:22:01 85° 185° (S) 2,592 9.0 -27.4°
Drops below altitude 10° 11:41:29 10° 100° (E) 6,211 11.9 -23.7°
Sets 11:46:30 0° 100° (E) 7,278 12.5 -22.7°
